GW0409 Weather Reports


Display with metric or nautical units.
time (UTC)temp
F
wind
direction
speed
MPH
gust
MPH
rain 1hr
in
rain 24hr
in
rain mn
in
humidity
%
barometer
mb
20260906100521 46 332 1.0 2.0 0.00 0.00 0.00 95 1017.6
20260906095519 46 0.0 0.0 0.00 0.00 0.00 95 1017.5
20260906094517 46 271 0.0 1.0 0.00 0.00 0.00 95 1017.5
20260906093518 46 343 1.0 2.0 0.00 0.00 0.00 95 1017.6
20260906092520 47 287 0.0 0.0 0.00 0.00 0.00 95 1017.6
20260906091520 47 328 1.0 2.0 0.00 0.00 0.00 95 1017.6
20260906090640 47 4 0.0 2.0 0.00 0.00 0.00 95 1017.6
20260906085518 47 0.0 0.0 0.00 0.00 0.00 95 1017.7
20260906084518 48 2 0.0 2.0 0.00 0.00 0.00 95 1017.7
20260906083538 48 287 0.0 1.0 0.00 0.00 0.00 95 1017.7
20260906082518 48 0.0 0.0 0.00 0.00 0.00 95 1017.7
20260906081558 49 316 1.0 2.0 0.00 0.00 0.00 95 1017.7
20260906080519 49 342 2.0 3.0 0.00 0.00 0.00 95 1017.7
20260906075520 49 10 2.0 3.0 0.00 0.00 0.00 95 1017.8
20260906074517 49 335 1.0 2.0 0.00 0.00 0.00 95 1017.8
20260906073516 49 348 0.0 2.0 0.00 0.00 0.00 94 1017.7
20260906072519 50 352 1.0 2.0 0.00 0.00 0.00 94 1017.8
20260906071519 50 338 2.0 2.0 0.00 0.00 0.00 93 1017.7
20260906070558 50 349 2.0 3.0 0.00 0.00 0.00 91 1017.7
20260906065517 51 332 2.0 2.0 0.00 0.00 0.00 89 1017.6
20260906064520 51 356 2.0 3.0 0.00 0.00 0.00 87 1017.5
20260906063539 51 360 1.0 2.0 0.00 0.00 0.00 87 1017.6
20260906062519 52 337 2.0 2.0 0.00 0.00 0.00 87 1017.5
20260906061517 53 344 1.0 2.0 0.00 0.00 0.00 86 1017.4
20260906060518 53 242 1.0 3.0 0.00 0.00 0.00 84 1017.3
20260906055518 54 319 1.0 2.0 0.00 0.00 0.00 82 1017.4
20260906054519 53 285 0.0 1.0 0.00 0.00 0.00 81 1017.4
20260906053519 54 0.0 0.0 0.00 0.00 0.00 80 1017.3
20260906052520 54 304 0.0 1.0 0.00 0.00 0.00 81 1017.4
20260906051521 54 275 0.0 0.0 0.00 0.00 0.00 80 1017.4
20260906050520 55 0.0 0.0 0.00 0.00 0.00 79 1017.3
20260906045520 55 286 1.0 1.0 0.00 0.00 0.00 78 1017.3
20260906044557 55 257 1.0 2.0 0.00 0.00 0.00 79 1017.3
20260906043519 55 299 0.0 0.0 0.00 0.00 0.00 79 1017.3
20260906042519 55 311 0.0 1.0 0.00 0.00 0.00 78 1017.3
20260906041602 56 251 1.0 1.0 0.00 0.00 0.00 77 1017.3
20260906040517 56 261 0.0 1.0 0.00 0.00 0.00 75 1017.4
20260906035517 57 305 0.0 2.0 0.00 0.00 0.00 74 1017.4
20260906034518 58 318 1.0 2.0 0.00 0.00 0.00 72 1017.4
20260906033520 59 327 2.0 2.0 0.00 0.00 0.00 70 1017.4
20260906032523 59 299 1.0 2.0 0.00 0.00 0.00 69 1017.3
20260906031519 59 302 1.0 2.0 0.00 0.00 0.00 71 1017.3
20260906030518 59 321 2.0 2.0 0.00 0.00 0.00 71 1017.2
20260906025540 60 315 1.0 2.0 0.00 0.00 0.00 70 1017.2
20260906024518 60 260 0.0 1.0 0.00 0.00 0.00 67 1017.2
20260906023519 61 273 0.0 2.0 0.00 0.00 0.00 67 1017.3
20260906022520 61 224 0.0 2.0 0.00 0.00 0.00 68 1017.3
20260906021518 62 224 1.0 2.0 0.00 0.00 0.00 68 1017.3
20260906020519 62 220 1.0 2.0 0.00 0.00 0.00 66 1017.3
20260906015519 63 219 1.0 2.0 0.00 0.00 0.00 64 1017.2
20260906014518 65 243 0.0 2.0 0.00 0.00 0.00 62 1017.1
20260906013524 66 0.0 0.0 0.00 0.00 0.00 56 1017.0
20260906012519 65 0.0 0.0 0.00 0.00 0.00 57 1017.0
20260906011539 65 0.0 0.0 0.00 0.00 0.00 58 1017.0
20260906010541 66 162 0.0 1.0 0.00 0.00 0.00 57 1017.0
20260906005517 66 169 0.0 1.0 0.00 0.00 0.00 53 1016.9
20260906004539 67 172 1.0 2.0 0.00 0.00 0.00 53 1017.0
20260906003521 67 139 1.0 3.0 0.00 0.00 0.00 52 1017.0
20260906002520 68 175 0.0 2.0 0.00 0.00 0.00 53 1017.0
20260906001519 68 175 0.0 2.0 0.00 0.00 0.00 54 1016.9
20260906000518 68 211 1.0 3.0 0.00 0.00 0.00 53 1016.9
20260905235518 67 191 0.0 3.0 0.00 0.00 0.00 52 1017.0
20260905234518 68 170 0.0 2.0 0.00 0.00 0.00 52 1017.0
20260905233519 69 211 0.0 2.0 0.00 0.00 0.00 50 1017.0
20260905232519 68 176 0.0 2.0 0.00 0.00 0.00 53 1017.0
20260905231521 66 54 1.0 4.0 0.00 0.00 0.00 54 1017.0
20260905230600 67 91 1.0 4.0 0.00 0.00 0.00 53 1017.0
20260905225543 67 134 0.0 4.0 0.00 0.00 0.00 54 1017.0
20260905224518 66 29 2.0 4.0 0.00 0.00 0.00 54 1017.1
20260905223521 66 22 2.0 6.0 0.00 0.00 0.00 54 1017.1
20260905222522 66 39 1.0 5.0 0.00 0.00 0.00 53 1017.2
20260905221522 66 45 2.0 6.0 0.00 0.00 0.00 53 1017.2
20260905220517 67 36 2.0 5.0 0.00 0.00 0.00 51 1017.3
20260905215517 68 31 2.0 7.0 0.00 0.00 0.00 52 1017.4
20260905214517 68 137 1.0 3.0 0.00 0.00 0.00 53 1017.5
20260905213520 66 162 0.0 3.0 0.00 0.00 0.00 52 1017.6
20260905212519 65 306 1.0 4.0 0.00 0.00 0.00 52 1017.7
20260905211518 64 57 1.0 3.0 0.00 0.00 0.00 53 1017.8
20260905210518 64 341 2.0 5.0 0.00 0.00 0.00 54 1017.9
20260905205518 64 27 2.0 4.0 0.00 0.00 0.00 55 1018.0
20260905204520 64 44 2.0 6.0 0.00 0.00 0.00 56 1018.0
20260905203519 65 74 1.0 4.0 0.00 0.00 0.00 54 1018.1
20260905202520 64 6 1.0 4.0 0.00 0.00 0.00 56 1018.1
20260905201519 64 197 1.0 4.0 0.00 0.00 0.00 58 1018.3
20260905200519 63 224 1.0 3.0 0.00 0.00 0.00 57 1018.3
20260905195519 62 64 1.0 5.0 0.00 0.00 0.00 58 1018.5
20260905194516 60 10 2.0 5.0 0.00 0.00 0.00 59 1018.6
20260905193520 60 99 2.0 5.0 0.00 0.00 0.00 62 1018.6
20260905192520 60 306 2.0 4.0 0.00 0.00 0.00 62 1018.8
20260905191517 60 281 1.0 3.0 0.00 0.00 0.00 62 1018.9
20260905190517 59 269 2.0 5.0 0.00 0.00 0.00 64 1018.9
20260905185539 59 4 2.0 5.0 0.00 0.00 0.00 63 1019.0
20260905184520 58 27 2.0 6.0 0.00 0.00 0.00 65 1019.1
20260905183519 57 3 1.0 5.0 0.00 0.00 0.00 66 1019.3
20260905182518 56 12 3.0 6.0 0.00 0.00 0.00 67 1019.5
20260905181518 56 17 3.0 5.0 0.00 0.00 0.00 67 1019.6
20260905180540 56 310 2.0 5.0 0.00 0.00 0.00 68 1019.6
20260905175520 55 355 2.0 4.0 0.00 0.00 0.00 69 1019.7
20260905174519 54 0 3.0 5.0 0.00 0.00 0.00 69 1019.7
20260905173519 54 12 2.0 5.0 0.00 0.00 0.00 71 1019.6
20260905172522 53 357 3.0 6.0 0.00 0.00 0.00 72 1019.7
20260905171519 52 23 3.0 5.0 0.00 0.00 0.00 72 1019.7
20260905170524 52 1 3.0 6.0 0.00 0.00 0.00 74 1019.7
20260905165521 51 359 2.0 5.0 0.00 0.00 0.00 75 1019.8
20260905164519 50 7 1.0 3.0 0.00 0.00 0.00 76 1019.8
20260905163542 50 359 3.0 6.0 0.00 0.00 0.00 76 1019.8
20260905162523 49 9 3.0 5.0 0.00 0.00 0.00 77 1019.9
20260905161520 48 22 3.0 5.0 0.00 0.00 0.00 78 1019.9
20260905160523 48 31 3.0 5.0 0.00 0.00 0.00 78 1020.0
20260905155517 47 32 2.0 5.0 0.00 0.00 0.00 79 1019.9
20260905154523 47 27 2.0 3.0 0.00 0.00 0.00 79 1019.9
20260905153521 47 13 3.0 5.0 0.00 0.00 0.00 80 1019.9
20260905152541 46 20 3.0 5.0 0.00 0.00 0.00 80 1019.9
20260905151521 46 16 2.0 4.0 0.00 0.00 0.00 81 1019.8
20260905150542 46 8 2.0 5.0 0.00 0.00 0.00 81 1019.8
20260905145518 46 12 2.0 6.0 0.00 0.00 0.00 81 1019.7
20260905144521 46 2 2.0 3.0 0.00 0.00 0.00 81 1019.6
20260905143522 46 13 3.0 5.0 0.00 0.00 0.00 80 1019.6
20260905142521 45 360 3.0 5.0 0.00 0.00 0.00 81 1019.5
20260905141522 44 17 2.0 5.0 0.00 0.00 0.00 82 1019.5
20260905140523 44 14 2.0 4.0 0.00 0.00 0.00 83 1019.4
20260905135519 44 15 2.0 6.0 0.00 0.00 0.00 83 1019.4
20260905134517 45 14 3.0 5.0 0.00 0.00 0.00 82 1019.3
20260905133517 45 359 3.0 5.0 0.00 0.00 0.00 82 1019.3
20260905132519 45 11 2.0 5.0 0.00 0.00 0.00 81 1019.2
20260905131520 45 8 3.0 7.0 0.00 0.00 0.00 80 1019.2
20260905130520 45 5 3.0 8.0 0.00 0.00 0.00 80 1019.2
20260905125517 45 9 3.0 7.0 0.00 0.00 0.00 81 1019.1
20260905124519 45 12 3.0 6.0 0.00 0.00 0.00 81 1019.1
20260905123518 46 5 3.0 6.0 0.00 0.00 0.00 80 1019.0
20260905122520 46 355 3.0 7.0 0.00 0.00 0.00 79 1018.9
20260905121518 46 9 3.0 7.0 0.00 0.00 0.00 79 1018.8
20260905120518 46 4 3.0 6.0 0.00 0.00 0.00 79 1018.7
20260905115518 46 7 3.0 6.0 0.00 0.00 0.00 78 1018.8
20260905114519 46 7 3.0 5.0 0.00 0.00 0.00 78 1018.7
20260905113519 47 11 3.0 8.0 0.00 0.00 0.00 78 1018.6
20260905112520 47 22 3.0 6.0 0.00 0.00 0.00 77 1018.5
20260905111519 47 6 3.0 6.0 0.00 0.00 0.00 77 1018.4
20260905110519 47 13 2.0 5.0 0.00 0.00 0.00 77 1018.5
20260905105520 47 19 3.0 6.0 0.00 0.00 0.00 76 1018.5
20260905104520 48 10 3.0 6.0 0.00 0.00 0.00 76 1018.3
20260905103517 48 359 5.0 9.0 0.00 0.00 0.00 76 1018.4
20260905102517 48 17 3.0 7.0 0.00 0.00 0.00 75 1018.4
20260905101520 48 12 4.0 6.0 0.00 0.00 0.00 75 1018.4